Location: Newark
(7.0858°N, 171.3717°E)
Time: 01:48:33
(UTC+00:00)

Transit 4A - Pass Details

Date: 28 November 2020
Orbit: 864 x 980 km, 66.8° (Epoch: 20 January)

Event Time Altitude Azimuth Distance (km) Brightness Sun altitude
Rises 17:48:51 0° 158° (SSE) 3,536 11.6 -10.4°
Reaches altitude 10° 17:53:15 10° 128° (SE) 2,624 11.6 -9.4°
Maximum altitude 17:55:23 12° 107° (ESE) 2,501 11.8 -8.9°
Drops below altitude 10° 17:57:33 10° 86° (E) 2,652 11.5 -8.4°
Sets 18:02:02 0° 57° (ENE) 3,623 11.5 -7.4°
